When you browse on this site, cookies collect data to enhance your experience and personalize the content and advertising you see.
Visit our Privacy Policy to learn more. By continuing to use the site, you agree to this use of cookies and data.
  • In Hungary
  • List of Countries
  • For 7 days
  • Water Temperature
  • Satellite Maps
  • Weather Map
  • News
  • Weather Widgets
  • user-avatar
    Login

    Hourly Weather Dera Ismail Khan

    Today, 21 February, Thursday

    Time Temperature Precipitation Wind Pressure Humidity
    00:00 +10°C° 0 mm 2 mps 747 mmHg 90%
    01:00 +9°C° 0 mm 2 mps 747 mmHg 90%
    02:00 +9°C° 0 mm 2 mps 747 mmHg 91%
    03:00 +9°C° 0 mm 2 mps 747 mmHg 91%
    04:00 +10°C° 0 mm 1 mps 747 mmHg 91%
    05:00 +9°C° 0 mm 2 mps 747 mmHg 90%
    06:00 +9°C° 0 mm 2 mps 747 mmHg 89%
    07:00 +9°C° 0 mm 2 mps 747 mmHg 88%
    08:00 +10°C° 0 mm 1 mps 747 mmHg 86%
    09:00 +12°C° 0 mm 1 mps 747 mmHg 79%
    10:00 +14°C° 0 mm 1 mps 747 mmHg 73%
    11:00 +16°C° 0 mm 1 mps 748 mmHg 64%
    12:00 +18°C° 0 mm 1 mps 747 mmHg 56%
    13:00 +19°C° 0 mm 2 mps 747 mmHg 49%
    14:00 +21°C° 0 mm 3 mps 746 mmHg 41%
    15:00 +21°C° 0 mm 3 mps 746 mmHg 40%
    16:00 +21°C° 0 mm 3 mps 746 mmHg 39%
    17:00 +21°C° 0 mm 4 mps 746 mmHg 38%
    18:00 +19°C° 0 mm 3 mps 746 mmHg 42%
    19:00 +18°C° 0 mm 3 mps 747 mmHg 46%
    20:00 +16°C° 0 mm 3 mps 747 mmHg 50%
    21:00 +15°C° 0 mm 2 mps 748 mmHg 55%
    22:00 +15°C° 0 mm 2 mps 748 mmHg 59%
    23:00 +14°C° 0 mm 1 mps 749 mmHg 64%

    Tomorrow, 22 February, Friday

    Time Temperature Precipitation Wind Pressure Humidity
    00:00 +14°C° 0 mm 1 mps 749 mmHg 61%
    01:00 +14°C° 0 mm 2 mps 749 mmHg 59%
    02:00 +14°C° 0 mm 2 mps 749 mmHg 57%
    03:00 +12°C° 0 mm 3 mps 749 mmHg 56%
    04:00 +12°C° 0 mm 3 mps 750 mmHg 55%
    05:00 +12°C° 0 mm 3 mps 750 mmHg 55%
    06:00 +12°C° 0 mm 3 mps 750 mmHg 57%
    07:00 +12°C° 0 mm 3 mps 751 mmHg 60%
    08:00 +12°C° 0 mm 3 mps 751 mmHg 63%
    09:00 +14°C° 0 mm 3 mps 752 mmHg 54%
    10:00 +17°C° 0 mm 3 mps 752 mmHg 46%
    11:00 +19°C° 0 mm 3 mps 752 mmHg 37%
    12:00 +20°C° 0 mm 3 mps 752 mmHg 34%
    13:00 +21°C° 0 mm 2 mps 751 mmHg 31%
    14:00 +23°C° 0 mm 2 mps 750 mmHg 28%
    15:00 +23°C° 0 mm 2 mps 750 mmHg 28%
    16:00 +21°C° 0 mm 2 mps 750 mmHg 28%
    17:00 +21°C° 0 mm 2 mps 749 mmHg 28%
    18:00 +20°C° 0 mm 2 mps 749 mmHg 30%
    19:00 +18°C° 0 mm 2 mps 750 mmHg 33%
    20:00 +16°C° 0 mm 2 mps 750 mmHg 36%
    21:00 +16°C° 0 mm 2 mps 750 mmHg 37%
    22:00 +15°C° 0 mm 2 mps 750 mmHg 38%
    23:00 +15°C° 0 mm 1 mps 750 mmHg 39%

    Day after tomorrow, 23 February, Saturday

    Time Temperature Precipitation Wind Pressure Humidity
    00:00 +14°C° 0 mm 2 mps 750 mmHg 39%
    01:00 +14°C° 0 mm 2 mps 750 mmHg 39%
    02:00 +14°C° 0 mm 2 mps 750 mmHg 39%
    03:00 +14°C° 0 mm 2 mps 750 mmHg 39%
    04:00 +14°C° 0 mm 2 mps 750 mmHg 38%
    05:00 +13°C° 0 mm 2 mps 749 mmHg 38%
    06:00 +14°C° 0 mm 2 mps 749 mmHg 38%
    07:00 +14°C° 0 mm 2 mps 750 mmHg 39%
    08:00 +15°C° 0 mm 2 mps 750 mmHg 39%
    09:00 +17°C° 0 mm 2 mps 750 mmHg 33%
    10:00 +19°C° 0 mm 2 mps 750 mmHg 28%
    11:00 +21°C° 0 mm 2 mps 749 mmHg 23%
    12:00 +23°C° 0 mm 1 mps 749 mmHg 21%
    13:00 +23°C° 0 mm 1 mps 748 mmHg 19%
    14:00 +24°C° 0 mm 1 mps 747 mmHg 17%
    15:00 +24°C° 0 mm 1 mps 746 mmHg 19%
    16:00 +22°C° 0 mm 0 mps 746 mmHg 20%
    17:00 +22°C° 0 mm 0 mps 745 mmHg 21%
    18:00 +20°C° 0 mm 0 mps 745 mmHg 24%
    19:00 +17°C° 0 mm 0 mps 746 mmHg 27%
    20:00 +15°C° 0 mm 0 mps 746 mmHg 30%
    21:00 +16°C° 0 mm 1 mps 746 mmHg 29%
    22:00 +16°C° 0 mm 1 mps 746 mmHg 29%
    23:00 +15°C° 0 mm 1 mps 746 mmHg 29%

    24 February, Sunday

    Time Temperature Precipitation Wind Pressure Humidity
    00:00 +15°C° 0 mm 1 mps 746 mmHg 28%
    01:00 +15°C° 0 mm 1 mps 746 mmHg 27%
    02:00 +15°C° 0 mm 2 mps 745 mmHg 26%
    03:00 +15°C° 0 mm 2 mps 745 mmHg 25%
    04:00 +15°C° 0 mm 2 mps 745 mmHg 25%
    05:00 +15°C° 0 mm 2 mps 744 mmHg 25%
    06:00 +16°C° 0 mm 1 mps 745 mmHg 27%
    07:00 +16°C° 0 mm 1 mps 745 mmHg 30%
    08:00 +16°C° 0 mm 1 mps 746 mmHg 33%
    09:00 +19°C° 0 mm 1 mps 746 mmHg 28%
    10:00 +19°C° 0 mm 0 mps 746 mmHg 24%
    11:00 +21°C° 0 mm 0 mps 746 mmHg 19%
    12:00 +21°C° 0 mm 0 mps 745 mmHg 19%
    13:00 +22°C° 0 mm 0 mps 744 mmHg 18%
    14:00 +23°C° 0 mm 0 mps 744 mmHg 18%
    15:00 +25°C° 0 mm 1 mps 743 mmHg 18%
    16:00 +25°C° 0 mm 1 mps 743 mmHg 19%
    17:00 +25°C° 0 mm 2 mps 743 mmHg 19%
    18:00 +23°C° 0 mm 2 mps 743 mmHg 21%
    19:00 +20°C° 0 mm 2 mps 744 mmHg 23%
    20:00 +19°C° 0 mm 2 mps 744 mmHg 26%
    21:00 +19°C° 0 mm 2 mps 744 mmHg 25%
    22:00 +18°C° 0 mm 2 mps 745 mmHg 24%
    23:00 +18°C° 0 mm 2 mps 745 mmHg 23%

    25 February, Monday

    Time Temperature Precipitation Wind Pressure Humidity
    00:00 +18°C° 0 mm 3 mps 745 mmHg 23%
    01:00 +17°C° 0 mm 3 mps 744 mmHg 24%
    02:00 +16°C° 0 mm 3 mps 744 mmHg 24%
    03:00 +16°C° 0.1 mm 2 mps 744 mmHg 26%
    04:00 +15°C° 0.1 mm 2 mps 744 mmHg 28%
    05:00 +15°C° 0.1 mm 2 mps 744 mmHg 30%
    06:00 +15°C° 0.1 mm 2 mps 745 mmHg 30%
    07:00 +15°C° 0.1 mm 2 mps 745 mmHg 31%
    08:00 +15°C° 0.1 mm 2 mps 746 mmHg 31%
    09:00 +17°C° 0 mm 2 mps 746 mmHg 27%
    10:00 +19°C° 0 mm 3 mps 746 mmHg 24%
    11:00 +20°C° 0 mm 3 mps 746 mmHg 20%
    12:00 +21°C° 0 mm 3 mps 746 mmHg 20%
    13:00 +22°C° 0 mm 3 mps 745 mmHg 19%
    14:00 +22°C° 0 mm 3 mps 744 mmHg 18%
    15:00 +22°C° 0 mm 3 mps 744 mmHg 19%
    16:00 +22°C° 0 mm 3 mps 743 mmHg 20%
    17:00 +22°C° 0 mm 3 mps 743 mmHg 21%
    18:00 +20°C° 0 mm 3 mps 744 mmHg 23%
    19:00 +19°C° 0 mm 3 mps 744 mmHg 25%
    20:00 +17°C° 0 mm 3 mps 744 mmHg 27%
    21:00 +17°C° 0 mm 3 mps 744 mmHg 28%
    22:00 +16°C° 0 mm 3 mps 744 mmHg 29%
    23:00 +16°C° 0 mm 3 mps 744 mmHg 30%

    26 February, Tuesday

    Time Temperature Precipitation Wind Pressure Humidity
    00:00 +16°C° 0 mm 3 mps 744 mmHg 29%
    01:00 +14°C° 0 mm 3 mps 744 mmHg 29%
    02:00 +14°C° 0 mm 3 mps 744 mmHg 29%
    03:00 +14°C° 0 mm 3 mps 744 mmHg 29%
    04:00 +13°C° 0 mm 3 mps 744 mmHg 29%
    05:00 +13°C° 0 mm 3 mps 744 mmHg 30%
    06:00 +13°C° 0 mm 3 mps 744 mmHg 30%
    07:00 +13°C° 0 mm 3 mps 745 mmHg 30%
    08:00 +14°C° 0 mm 3 mps 745 mmHg 30%
    09:00 +17°C° 0 mm 3 mps 745 mmHg 27%
    10:00 +19°C° 0 mm 3 mps 746 mmHg 24%
    11:00 +20°C° 0 mm 4 mps 746 mmHg 20%
    12:00 +21°C° 0 mm 4 mps 745 mmHg 20%
    13:00 +22°C° 0 mm 3 mps 744 mmHg 20%
    14:00 +22°C° 0 mm 3 mps 743 mmHg 20%
    15:00 +22°C° 0 mm 3 mps 743 mmHg 20%
    16:00 +22°C° 0 mm 3 mps 742 mmHg 21%
    17:00 +22°C° 0 mm 3 mps 742 mmHg 21%
    18:00 +20°C° 0 mm 2 mps 742 mmHg 24%
    19:00 +18°C° 0 mm 2 mps 742 mmHg 27%
    20:00 +17°C° 0 mm 2 mps 742 mmHg 30%
    21:00 +16°C° 0 mm 1 mps 743 mmHg 32%
    22:00 +15°C° 0 mm 1 mps 743 mmHg 34%
    23:00 +14°C° 0 mm 1 mps 743 mmHg 36%
    Show more